Content
SEND FEEDBACK

Daily
Averages
Monthly
Summary
French Polynesia

PAPEETE, FRENCH POLYNESIA


Home > Oceania > French Polynesia
Elevation: 7 feet     Latitude: 17 33S     Longitude: 149 36W

WEATHER
 
SELECT A DAY
Number of Records: 217,668;   Date Range: 6/30/96 - 12/23/14
 
SHARE

PRINT THIS DATA

[ ← Previous Day ]
WEATHER ALMANAC - NOVEMBER 5, 2013
[ Next Day → ]
[ °C ]   °F
Weather ElementAverageHighLow
Temperature79.5 °F86 °F (1:30 pm)73 °F (5:00 am)
Dewpoint68.9 °F72 °F (11:00 am)66 °F (2:00 am)
Humidity69.4 %83 % (4:00 am)53 % (2:00 pm)
Barometer29.88 in29.92 in (12:30 am)29.83 in (1:30 pm)
Wind Speed8.1 mph20.1 mph (11:00 pm)
Weather ElementAverage
Visibility8 mi
Wind DirectionSSE (167.8 °)

Weather ElementTotal
Precipitation---
Cooling Degree Days14.5 (Base 65)
Growing Degree Days29.5 (Base 50)
Averaged from 54 records on November 5, 2013
WEATHER CONDITIONS BREAKOUT
WIND DIRECTION BREAKOUT
WEATHER BY HOUR - NOVEMBER 5, 2013
[ °C ]   °F
Local TimeTemperatureDewpointHumidityBarometerVisibilityWind DirectionWind SpeedGust SpeedPrecipitationEventsConditions
12:30 AM75.2 °F66.2 °F73 %29.92 in6.2 miEast (100°)3.5 mphPartly Cloudy
1:00 AM73.4 °F66.2 °F78 %29.89 in6.2 miESE (110°)3.5 mphPartly Cloudy
1:30 AM73.4 °F66.2 °F78 %29.89 in6.2 miESE (110°)4.6 mphPartly Cloudy
2:00 AM74.0 °F66.0 °F71 %29.89 in12.0 miESE (110°)8.9 mphScattered Clouds
2:00 AM73.4 °F66.2 °F78 %29.89 in6.2 miESE (110°)4.6 mphPartly Cloudy
2:30 AM73.4 °F66.2 °F78 %29.86 in6.2 miEast (100°)3.5 mphPartly Cloudy
3:00 AM73.4 °F66.2 °F78 %29.86 in6.2 miVariable2.3 mphPartly Cloudy
3:30 AM73.4 °F66.2 °F78 %29.89 in6.2 miESE (110°)4.6 mph
4:00 AM73.4 °F68.0 °F83 %29.89 in6.2 miESE (110°)3.5 mph
4:30 AM73.4 °F66.2 °F78 %29.89 in6.2 miESE (110°)3.5 mph
5:00 AM73.0 °F66.0 °F74 %29.89 in37.0 miESE (110°)3.5 mphClear
5:00 AM73.4 °F66.2 °F78 %29.89 in6.2 miESE (110°)3.5 mph
5:30 AM73.4 °F66.2 °F78 %29.89 in6.2 miSE (130°)1.2 mph
6:00 AM73.4 °F66.2 °F78 %29.89 in6.2 miEast (100°)3.5 mphScattered Clouds
6:30 AM78.8 °F68.0 °F69 %29.89 in6.2 miEast (100°)3.5 mphScattered Clouds
7:00 AM80.6 °F69.8 °F70 %29.89 in6.2 miVariable2.3 mphScattered Clouds
7:30 AM80.6 °F69.8 °F70 %29.92 in6.2 miVariable3.5 mphScattered Clouds
8:00 AM82.0 °F70.0 °F59 %29.92 in19.0 miNNE (20°)2.3 mphPartly Cloudy
8:00 AM82.4 °F69.8 °F66 %29.92 in6.2 miVariable2.3 mphPartly Cloudy
8:30 AM82.4 °F71.6 °F70 %29.92 in6.2 miVariable2.3 mphPartly Cloudy
9:00 AM82.4 °F71.6 °F70 %29.92 in6.2 miNorth (10°)4.6 mphPartly Cloudy
9:30 AM84.2 °F71.6 °F66 %29.92 in6.2 miNNW (340°)4.6 mphPartly Cloudy
10:00 AM84.2 °F71.6 °F66 %29.92 in6.2 miNW (320°)4.6 mphPartly Cloudy
10:30 AM84.2 °F71.6 °F66 %29.89 in6.2 miNW (310°)4.6 mphPartly Cloudy
11:00 AM85.0 °F72.0 °F56 %29.90 in19.0 miWest (280°)13.4 mphScattered Clouds
11:00 AM84.2 °F71.6 °F66 %29.89 in6.2 miWest (280°)6.9 mphPartly Cloudy
11:30 AM84.2 °F71.6 °F66 %29.89 in6.2 miWest (270°)5.8 mphPartly Cloudy
12:00 PM84.2 °F71.6 °F66 %29.86 in6.2 miWSW (250°)5.8 mphPartly Cloudy
12:30 PM84.2 °F71.6 °F66 %29.86 in6.2 miWest (260°)4.6 mphScattered Clouds
1:00 PM84.2 °F69.8 °F62 %29.86 in6.2 miWSW (250°)5.8 mphScattered Clouds
1:30 PM86.0 °F71.6 °F62 %29.83 in6.2 miWSW (240°)8.1 mphPartly Cloudy
2:00 PM85.0 °F70.0 °F53 %29.85 in19.0 miSW (230°)15.7 mphScattered Clouds
2:00 PM84.2 °F69.8 °F62 %29.83 in6.2 miSW (230°)8.1 mphPartly Cloudy
2:30 PM84.2 °F69.8 °F62 %29.83 in6.2 miSW (230°)9.2 mphPartly Cloudy
3:00 PM82.4 °F71.6 °F70 %29.83 in6.2 miSW (220°)12.7 mphPartly Cloudy
3:30 PM84.2 °F69.8 °F62 %29.83 in6.2 miSSW (210°)12.7 mphPartly Cloudy
4:00 PM84.2 °F69.8 °F62 %29.83 in6.2 miSSW (210°)13.8 mphPartly Cloudy
4:30 PM82.4 °F71.6 °F70 %29.83 in6.2 miSSW (210°)15.0 mphPartly Cloudy
5:00 PM82.0 °F70.0 °F59 %29.85 in19.0 miSSW (210°)15.0 mphScattered Clouds
5:00 PM82.4 °F69.8 °F66 %29.83 in6.2 miSSW (210°)15.0 mphPartly Cloudy
5:30 PM80.6 °F69.8 °F70 %29.86 in6.2 miSSW (200°)16.1 mphPartly Cloudy
6:00 PM80.6 °F69.8 °F70 %29.86 in6.2 miSSW (200°)16.1 mphPartly Cloudy
6:30 PM80.6 °F69.8 °F70 %29.86 in6.2 miSSW (200°)15.0 mphPartly Cloudy
7:00 PM78.8 °F68.0 °F69 %29.86 in6.2 miSSW (200°)12.7 mphPartly Cloudy
7:30 PM78.8 °F69.8 °F74 %29.89 in6.2 miSSW (200°)16.1 mphPartly Cloudy
8:00 PM79.0 °F69.0 °F64 %29.90 in12.0 miSSW (200°)12.7 mphScattered Clouds
8:00 PM78.8 °F69.8 °F74 %29.89 in6.2 miSSW (200°)12.7 mphPartly Cloudy
8:30 PM78.8 °F68.0 °F69 %29.89 in6.2 miSSW (200°)15.0 mphPartly Cloudy
9:30 PM77.0 °F68.0 °F74 %29.92 in6.2 miSouth (190°)8.1 mphPartly Cloudy
10:00 PM77.0 °F66.2 °F69 %29.92 in6.2 miSouth (190°)9.2 mphPartly Cloudy
10:30 PM77.0 °F68.0 °F74 %29.92 in6.2 miSouth (190°)9.2 mphPartly Cloudy
11:00 PM77.0 °F67.0 °F65 %29.91 in12.0 miSSW (200°)20.1 mphScattered Clouds
11:00 PM77.0 °F68.0 °F74 %29.89 in6.2 miSSW (200°)10.4 mphPartly Cloudy
11:30 PM77.0 °F66.2 °F69 %29.89 in6.2 miSouth (180°)9.2 mphPartly Cloudy
Hourly data recorded from NTAA, located miles away from Papeete, French Polynesia







STORIES FROM OUR PARTNERS